AirNav   Everest Fuels
 
 1716 users online  

1AZ7 S R P Tolleson Center Heliport
Tolleson, Arizona, USA

GOING TO TOLLESON?


FAA INFORMATION EFFECTIVE 10 SEPTEMBER 2020

Location

FAA Identifier: 1AZ7
Lat/Long: 33-26-59.1530N 112-13-47.5530W
33-26.985883N 112-13.792550W
33.4497647,-112.2298758
(estimated)
Elevation: 1140 ft. / 347 m (estimated)
Variation: 13E (1985)
From city: 2 miles E of TOLLESON, AZ
Time zone: UTC -7 (year round; does not observe DST)
Zip code: 85043

Heliport Operations

Heliport use: Private use. Permission required prior to landing
Activation date: 01/1987
Control tower: no
ARTCC: ALBUQUERQUE CENTER
FSS: PRESCOTT FLIGHT SERVICE STATION
Attendance: UNATNDD
Segmented circle: no

Heliport Communications

WX AWOS-3 at GEU (6 nm NW): 119.425 (623-877-8609)
WX ASOS at LUF (9 nm NW): 267.4 (623-877-8609)
WX ASOS at PHX (11 nm E): PHONE 602-231-8557
WX ASOS at DVT (16 nm NE): 126.5 (623-587-7764)
WX ASOS at SDL (19 nm NE): PHONE 480-483-3049

Nearby radio navigation aids

VOR radial/distance  VOR name  Freq  Var
PXRr262/13.0PHOENIX VORTAC115.6012E
BXKr076/29.8BUCKEYE VORTAC110.6014E
IWAr274/30.3WILLIE VORTAC113.3013E
GBNr023/37.1GILA BEND VORTAC116.6014E
TFDr323/37.5STANFIELD VORTAC114.8012E

 
NDB name  Hdg/Dist  Freq  Var  ID
CHANDLER285/23.840712ECHD -.-. .... -..

Heliport Services

Runway Information

Helipad H1

Dimensions: 25 x 25 ft. / 8 x 8 m
Surface: asphalt
Traffic pattern: leftleft

Heliport Ownership and Management from official FAA records

Ownership: Privately-owned
Owner: SALT RIVER PROJECT
2601 E. AIRLANE
PHOENIX, AZ 85034
Phone 602-236-2479
Manager: JEFFREY R. CAMPBELL
2601 E. AIRLANE
PHOENIX, AZ 85034
Phone 602-236-2479

Additional Remarks

FOR CD CTC PHOENIX APCH AT 602-306-2565.

Instrument Procedures

There are no published instrument procedures at 1AZ7.

Some nearby airports with instrument procedures:

KGEU - Glendale Municipal Airport (6 nm NW)
KGYR - Phoenix Goodyear Airport (7 nm W)
KLUF - Luke Air Force Base (9 nm NW)
KPHX - Phoenix Sky Harbor International Airport (11 nm E)
KDVT - Phoenix Deer Valley Airport (16 nm NE)
P19 - Stellar Airpark (18 nm SE)
KSDL - Scottsdale Airport (19 nm NE)
 
Loc | Ops | Rwys | IFR | FBO | Links
Com | Nav | Svcs | Stats | Notes
Area around 1AZ7 (S R P Tolleson Center Heliport)
 
Road maps at: MapQuest Bing Google
 
Aerial photo
No photo
 
Sectional chart

 
Airport distance calculator
Flying to S R P Tolleson Center Heliport? Find the distance to fly.

From to 1AZ7

Sunrise and sunset
Times for 24-Sep-2020
 Local
(UTC-7)
 Zulu
(UTC)
Morning civil twilight05:5512:55
Sunrise06:2013:20
Sunset18:2101:21
Evening civil twilight18:4601:46

Current date and time
Zulu (UTC)  24-Sep-2020 17:48:07
Local (UTC-7)  24-Sep-2020 10:48:07
 
METAR
KGEU 
6nm NW 
241650Z 09005KT 10SM SKC 32/06 A2993
KGYR 
7nm W 
241647Z 33004KT 10SM SKC 32/07 A2992 `
KLUF 
8nm NW 
241658Z AUTO 10004KT 10SM CLR 32/07 A2990 RMK AO2 SLP111 T03230072 $
KPHX 
9nm E 
241651Z 12003KT 10SM CLR 32/07 A2990 RMK AO2 SLP106 T03220067
KDVT 
16nm NE 
241653Z 13005KT 10SM CLR 32/06 A2994 RMK AO2 SLP111 T03220061
KSDL 
19nm NE 
241653Z 15003KT 10SM CLR 32/07 A2995 RMK AO2 SLP112 T03170072
TAF
KLUF 
8nm NW 
241200Z 2412/2518 VRB06KT 9999 SKC QNH2977INS TEMPO 2422/2501 22010G15KT TX41/2422Z TN22/2511Z
KPHX 
9nm E 
241138Z 2412/2518 10005KT P6SM SKC FM241900 26007KT P6SM SKC FM251000 10005KT P6SM SKC
KDVT 
16nm NE 
241138Z 2412/2512 04004KT P6SM SKC FM241600 18004KT P6SM SKC FM241900 24008KT P6SM SKC FM250600 04004KT P6SM SKC
KSDL 
19nm NE 
241138Z 2412/2512 00000KT P6SM SKC FM241800 19004KT P6SM SKC FM242000 24007KT P6SM SKC FM250300 00000KT P6SM SKC
NOTAMs
Click for the latest NOTAMs
NOTAMs are issued by the DoD/FAA and will open in a separate window not controlled by AirNav.

 

 
 

Would you like to see your business listed on this page?

 If your business provides an interesting product or service to pilots, flight crews, aircraft, or users of the S R P Tolleson Center Heliport, you should consider listing it here.  To start the listing process, click on the button below
 
Add a business
 

Other Pages about S R P Tolleson Center Heliport

Update a link
 
Copyright © AirNav, LLC. All rights reserved. Privacy Policy  Contact